[[{"header":{"parameterUnit":"m.s-1","parameterCategory":1,"la1":30.2991,"la2":30.254,"lo1":-89.0895,"lo2":-89.0444,"dy":0.0017,"dx":0.0017,"nx":28,"ny":28,"refTime":"2024-10-06T09:00:00:Z","depth":0,"parameterNumber":2,"parameterNumberName":"U-component_of_WINDS"},"data":[0,0,0,0,0,0,0,0,0,0,0,0,0,0,0,0,0,0,0,0,0,0,0,0,0,0,0,0,0,0,0,0,0,0,0,0,0,0,0,0,0,0,0,0,0,0,0,0,0,0,0,0,0,0,0,0,0,0,-0.3698,-0.3697,0,-0.3678,-0.3678,-0.3678,-0.366,-0.366,-0.366,-0.366,-0.3639,-0.3639,-0.3639,0,0,0,0,0,0,0,0,0,0,0,0,0,-0.3719,-0.3719,-0.3698,-0.3697,-0.3697,-0.3678,-0.3678,-0.3678,-0.366,-0.366,-0.366,-0.366,-0.3639,-0.3639,-0.3638,0,0,0,0,0,0,0,0,0,0,0,0,0,-0.3706,-0.3719,-0.3698,-0.3686,-0.3685,-0.3678,-0.3678,-0.3677,-0.366,-0.366,-0.366,-0.366,-0.3639,-0.3639,-0.3638,-0.3641,0,0,-0.3637,-0.3637,0,0,0,0,0,0,0,0,-0.3706,-0.3705,-0.3688,-0.3687,-0.3686,-0.3671,-0.3678,-0.3665,-0.366,-0.367,-0.366,-0.3659,-0.365,-0.3649,-0.3646,-0.364,-0.3639,-0.3637,-0.3636,-0.3636,-0.3636,0,0,0,0,0,0,0,-0.3707,-0.3706,-0.369,-0.3688,-0.3686,-0.3682,-0.368,-0.3675,-0.3662,-0.3669,-0.3668,-0.3666,-0.3649,-0.3646,-0.3645,-0.3639,-0.3637,-0.3636,-0.3636,-0.3636,-0.3634,-0.3634,0,0,0,0,0,0,-0.371,-0.3706,-0.369,-0.3689,-0.3696,-0.3682,-0.3679,-0.3676,-0.3662,-0.3659,-0.3666,-0.3665,-0.3647,-0.3646,-0.3644,-0.3646,-0.3636,-0.3636,-0.3635,-0.3633,-0.3634,-0.3634,0,0,0,0,0,0,-0.3711,-0.3709,-0.3691,-0.3698,-0.3695,-0.3682,-0.3678,-0.3676,-0.3673,-0.3659,-0.3657,-0.3665,-0.3647,-0.3645,-0.3642,-0.3645,-0.3635,-0.3635,-0.3633,-0.3633,-0.3634,-0.365,0,0,0,0,0,0,-0.3711,-0.3709,-0.371,-0.3698,-0.3695,-0.369,-0.3679,-0.3676,-0.3672,-0.3671,-0.3658,-0.3656,-0.3647,-0.3643,-0.3641,-0.3644,-0.3635,-0.3633,-0.3633,-0.3634,-0.3649,-0.3651,-0.3652,0,0,0,0,0,-0.3712,-0.3716,-0.3711,-0.3709,-0.3696,-0.369,-0.3688,-0.3678,-0.3672,-0.3673,-0.3664,-0.3656,-0.3645,-0.3643,-0.3641,-0.3644,-0.3632,-0.3633,-0.3634,-0.3648,-0.365,-0.3652,0,0,0,0,0,0,-0.3729,-0.3714,-0.3708,-0.3708,-0.37,-0.3687,-0.3688,-0.368,-0.3674,-0.3673,-0.366,-0.3657,-0.3655,-0.3649,-0.3647,-0.3645,-0.3637,-0.3638,-0.3649,-0.3651,-0.3653,-0.3654,-0.3634,0,0,0,0,0,-0.3733,-0.373,-0.3716,-0.3717,-0.3714,-0.3701,-0.3698,-0.3691,-0.3682,-0.3679,-0.367,-0.3662,-0.3657,-0.3653,-0.3648,-0.3648,-0.3644,-0.3649,-0.365,-0.3652,-0.3652,-0.3651,-0.3652,-0.3636,-0.3636,-0.3636,0,0,-0.3741,-0.3732,-0.3731,-0.372,-0.3714,-0.371,-0.3699,-0.3696,-0.3693,-0.3679,-0.3675,-0.3668,-0.3658,-0.3656,-0.3655,-0.3651,-0.3656,-0.3652,-0.3654,-0.3653,-0.3652,-0.3653,-0.3655,-0.3636,-0.3636,-0.3636,0,0,-0.3753,-0.3746,-0.3746,-0.3739,-0.3729,-0.3721,-0.3721,-0.3709,-0.3703,-0.37,-0.3689,-0.3685,-0.3676,-0.3669,-0.3664,-0.3673,-0.3665,-0.3671,-0.368,-0.3679,-0.368,-0.3681,-0.3684,-0.3685,-0.3672,-0.3672,-0.3672,0,-0.3764,-0.3759,-0.3747,-0.3744,-0.374,-0.3727,-0.3726,-0.372,-0.3708,-0.3706,-0.3701,-0.3689,-0.3681,-0.3677,-0.3679,-0.3676,-0.3675,-0.3673,-0.3681,-0.3682,-0.3683,-0.3685,-0.3686,-0.3672,-0.3672,-0.3672,-0.3672,0,-0.3772,-0.3769,-0.377,-0.3759,-0.3754,-0.3753,-0.374,-0.3737,-0.373,-0.3721,-0.3717,-0.3707,-0.3699,-0.3698,-0.369,-0.3692,-0.369,-0.3683,-0.3676,-0.3685,-0.3687,-0.3688,-0.3674,-0.3673,-0.3673,-0.3673,0,0,-0.3796,-0.3778,-0.3779,-0.3773,-0.3761,-0.3757,-0.3755,-0.3746,-0.3744,-0.3736,-0.3733,-0.3725,-0.3719,-0.3713,-0.3705,-0.3704,-0.3711,-0.3697,-0.3697,-0.37,-0.3712,-0.3717,-0.3719,-0.3705,-0.3705,-0.3706,-0.3713,0,-0.3806,-0.3801,-0.379,-0.3788,-0.3784,-0.3771,-0.3769,-0.376,-0.3752,-0.3747,-0.3738,-0.3733,-0.3725,-0.3722,-0.372,-0.3711,-0.3713,-0.371,-0.3702,-0.3702,-0.3705,-0.372,-0.3726,-0.3733,-0.3714,-0.3714,-0.3714,0,-0.3818,-0.3811,-0.3809,-0.3796,-0.3793,-0.3792,-0.3783,-0.3778,-0.3768,-0.3762,-0.3756,-0.3747,-0.3742,-0.3735,-0.3729,-0.3727,-0.3723,-0.3717,-0.3717,-0.3717,-0.3709,-0.3719,-0.3735,-0.3736,-0.3715,-0.3715,-0.3715,0,-0.3835,-0.3825,-0.3822,-0.3818,-0.3803,-0.3802,-0.3795,-0.3785,-0.378,-0.3772,-0.3769,-0.3761,-0.3756,-0.375,-0.3738,-0.3734,-0.3733,-0.3725,-0.3727,-0.3728,-0.3728,-0.3729,-0.3744,-0.3726,-0.3726,-0.3726,-0.3726,0,-0.3848,-0.3847,-0.383,-0.3828,-0.3826,-0.3813,-0.3812,-0.3804,-0.3795,-0.3791,-0.3779,-0.3775,-0.376,-0.3754,-0.3745,-0.3741,-0.3739,-0.3734,-0.3731,-0.3735,-0.3736,-0.3732,-0.3732,-0.3726,-0.3726,-0.3726,-0.3726,0,-0.3867,-0.3856,-0.3852,-0.3837,-0.3833,-0.3833,-0.382,-0.3818,-0.3809,-0.3804,-0.3802,-0.3788,-0.3781,-0.3768,-0.3757,-0.3751,-0.3749,-0.3744,-0.3752,-0.3751,-0.3754,-0.3754,-0.3768,-0.3769,-0.375,-0.3751,-0.3751,0,-0.3876,-0.3875,-0.3861,-0.3857,-0.3851,-0.3846,-0.3841,-0.3828,-0.3823,-0.3811,-0.381,-0.3802,-0.3795,-0.3784,-0.3772,-0.3763,-0.3759,-0.3764,-0.3758,-0.3761,-0.3759,-0.3759,-0.3759,-0.3766,-0.3766,-0.3767,-0.3767,0,-0.3894,-0.3888,-0.3882,-0.3873,-0.3868,-0.3861,-0.3853,-0.385,-0.3835,-0.383,-0.3823,-0.3817,-0.3806,-0.3798,-0.3787,-0.378,-0.3771,-0.3769,-0.3769,-0.3773,-0.3778,-0.3775,-0.3757,-0.3769,-0.3769,-0.3768,-0.3768,-0.3768,-0.3908,-0.3906,-0.3896,-0.3889,-0.3881,-0.3874,-0.3871,-0.3861,-0.3855,-0.3845,-0.3837,-0.383,-0.3819,-0.3804,-0.3797,-0.3791,-0.3786,-0.3787,-0.3787,-0.3787,-0.3789,-0.3778,-0.3789,-0.3789,-0.3789,-0.3788,-0.3788,0,-0.3925,-0.3917,-0.3911,-0.39,-0.3894,-0.3886,-0.3877,-0.3872,-0.3867,-0.3857,-0.385,-0.3841,-0.3833,-0.382,-0.3811,-0.3808,-0.3803,-0.3806,-0.3806,-0.3805,-0.3793,-0.3794,-0.381,-0.381,-0.381,-0.381,-0.381,-0.381,-0.3933,-0.3929,-0.3922,-0.3914,-0.3906,-0.3899,-0.3895,-0.3887,-0.388,-0.387,-0.3863,-0.3855,-0.3844,-0.3834,-0.3825,-0.3822,-0.3819,-0.3823,-0.3818,-0.3807,-0.3805,-0.3804,-0.3804,-0.3822,-0.3822,-0.383,-0.383,-0.383]},{"header":{"parameterUnit":"m.s-1","parameterCategory":1,"la1":30.2991,"la2":30.254,"lo1":-89.0895,"lo2":-89.0444,"dy":0.0017,"dx":0.0017,"nx":28,"ny":28,"refTime":"2024-10-06T09:00:00:Z","depth":0,"parameterNumber":3,"parameterNumberName":"V-component_of_WINDS"},"data":[0,0,0,0,0,0,0,0,0,0,0,0,0,0,0,0,0,0,0,0,0,0,0,0,0,0,0,0,0,0,0,0,0,0,0,0,0,0,0,0,0,0,0,0,0,0,0,0,0,0,0,0,0,0,0,0,0,0,-4.4204,-4.4205,0,-4.4275,-4.4276,-4.4277,-4.4241,-4.4239,-4.4237,-4.4235,-4.4304,-4.4308,-4.4311,0,0,0,0,0,0,0,0,0,0,0,0,0,-4.4033,-4.4036,-4.4204,-4.4205,-4.4206,-4.4275,-4.4276,-4.4277,-4.4241,-4.4239,-4.4237,-4.4234,-4.4303,-4.4307,-4.4312,0,0,0,0,0,0,0,0,0,0,0,0,0,-4.4106,-4.4037,-4.4204,-4.4196,-4.4196,-4.4275,-4.4276,-4.4277,-4.4242,-4.4239,-4.4236,-4.4233,-4.4302,-4.4307,-4.4312,-4.4401,0,0,-4.4329,-4.4331,0,0,0,0,0,0,0,0,-4.4102,-4.4112,-4.4196,-4.4197,-4.4197,-4.4246,-4.4241,-4.4319,-4.4242,-4.4224,-4.4235,-4.4232,-4.4287,-4.4293,-4.4313,-4.4405,-4.4408,-4.4329,-4.4332,-4.4335,-4.4336,0,0,0,0,0,0,0,-4.4097,-4.4109,-4.4232,-4.4198,-4.4198,-4.4188,-4.4195,-4.4256,-4.427,-4.4226,-4.4223,-4.4232,-4.4287,-4.4308,-4.4314,-4.4409,-4.4329,-4.4334,-4.4337,-4.4339,-4.4577,-4.458,0,0,0,0,0,0,-4.4093,-4.4105,-4.423,-4.4234,-4.4142,-4.4193,-4.4202,-4.4233,-4.427,-4.4273,-4.4235,-4.423,-4.43,-4.4308,-4.4316,-4.4424,-4.4335,-4.434,-4.4343,-4.4574,-4.4578,-4.4581,0,0,0,0,0,0,-4.4089,-4.4104,-4.4227,-4.4169,-4.4184,-4.4199,-4.4235,-4.4236,-4.4257,-4.4277,-4.4279,-4.4254,-4.4298,-4.4309,-4.4381,-4.4425,-4.4342,-4.4347,-4.457,-4.4575,-4.4579,-4.4638,0,0,0,0,0,0,-4.4084,-4.4103,-4.4138,-4.417,-4.4187,-4.4292,-4.4238,-4.424,-4.4267,-4.4262,-4.4295,-4.4298,-4.4297,-4.4373,-4.4386,-4.4431,-4.4351,-4.4566,-4.4572,-4.4578,-4.4633,-4.4645,-4.4655,0,0,0,0,0,-4.4078,-4.4151,-4.414,-4.4155,-4.4231,-4.4294,-4.4304,-4.4302,-4.4271,-4.4306,-4.4318,-4.4297,-4.4418,-4.4381,-4.4395,-4.4443,-4.4564,-4.4571,-4.4578,-4.4628,-4.4642,-4.4654,0,0,0,0,0,0,-4.4122,-4.4155,-4.4143,-4.4228,-4.4259,-4.4288,-4.4332,-4.4318,-4.4357,-4.435,-4.4346,-4.4353,-4.4428,-4.4442,-4.44,-4.4531,-4.4486,-4.4496,-4.4519,-4.4533,-4.4544,-4.4539,-4.4356,0,0,0,0,0,-4.4142,-4.4191,-4.4217,-4.4289,-4.4305,-4.4316,-4.4343,-4.434,-4.4371,-4.4383,-4.44,-4.443,-4.4475,-4.4505,-4.4547,-4.4634,-4.4641,-4.4674,-4.4685,-4.4694,-4.4703,-4.475,-4.4765,-4.4604,-4.4604,-4.4604,0,0,-4.4182,-4.4206,-4.4238,-4.4299,-4.4322,-4.4372,-4.4327,-4.4382,-4.4419,-4.4391,-4.4461,-4.4474,-4.4507,-4.4587,-4.4623,-4.4601,-4.4749,-4.4703,-4.471,-4.4714,-4.4759,-4.4774,-4.4788,-4.4609,-4.4608,-4.4607,0,0,-4.4283,-4.4306,-4.437,-4.4394,-4.4431,-4.4437,-4.4453,-4.4484,-4.4493,-4.4563,-4.4543,-4.4586,-4.4663,-4.4688,-4.471,-4.4821,-4.4802,-4.4834,-4.4892,-4.4938,-4.4951,-4.4962,-4.5002,-4.5016,-4.4843,-4.4843,-4.4843,0,-4.4328,-4.4405,-4.4403,-4.4461,-4.4488,-4.4466,-4.453,-4.4553,-4.4601,-4.462,-4.4595,-4.4692,-4.4712,-4.4798,-4.4825,-4.4844,-4.4861,-4.4831,-4.495,-4.4961,-4.4971,-4.5009,-4.5024,-4.4847,-4.4846,-4.4846,-4.4846,0,-4.446,-4.4513,-4.456,-4.4609,-4.4641,-4.4701,-4.4707,-4.474,-4.4734,-4.4743,-4.4814,-4.4838,-4.4885,-4.4905,-4.4898,-4.499,-4.4975,-4.495,-4.4905,-4.4991,-4.5026,-4.504,-4.4852,-4.4851,-4.485,-4.4849,0,0,-4.4589,-4.4637,-4.4654,-4.4676,-4.4715,-4.4756,-4.4814,-4.4862,-4.489,-4.4924,-4.4973,-4.5039,-4.5016,-4.5042,-4.5038,-4.5079,-4.5165,-4.5048,-4.5049,-4.507,-4.5267,-4.5286,-4.5303,-4.5153,-4.5156,-4.5158,-4.5265,0,-4.4693,-4.4798,-4.4798,-4.4894,-4.4943,-4.4923,-4.4975,-4.5003,-4.5013,-4.5055,-4.5065,-4.5113,-4.5079,-4.5095,-4.5134,-4.5146,-4.5205,-4.5138,-4.5198,-4.52,-4.5191,-4.5322,-4.5342,-4.5441,-4.5278,-4.5281,-4.5282,0,-4.4828,-4.4868,-4.4969,-4.5002,-4.5022,-4.5068,-4.5112,-4.5153,-4.5185,-4.5189,-4.5218,-4.5208,-4.5267,-4.522,-4.5301,-4.5256,-4.528,-4.529,-4.5293,-4.5299,-4.5247,-4.5331,-4.5473,-4.5488,-4.5304,-4.5302,-4.5301,0,-4.4913,-4.4991,-4.5063,-4.5082,-4.5121,-4.5154,-4.5172,-4.5201,-4.523,-4.5268,-4.5286,-4.533,-4.5353,-4.5387,-4.5388,-4.5354,-4.547,-4.5423,-4.5475,-4.5475,-4.55,-4.5499,-4.5649,-4.5515,-4.5515,-4.5515,-4.5514,0,-4.5028,-4.5091,-4.5102,-4.5146,-4.5215,-4.5215,-4.5283,-4.5298,-4.5324,-4.5369,-4.5354,-4.5396,-4.5396,-4.5439,-4.544,-4.5507,-4.5518,-4.5522,-4.5522,-4.5524,-4.5524,-4.554,-4.5533,-4.5519,-4.5518,-4.5517,-4.5516,0,-4.5135,-4.5145,-4.5221,-4.5253,-4.5262,-4.5312,-4.5338,-4.5379,-4.5388,-4.5446,-4.5459,-4.5473,-4.5523,-4.5528,-4.5585,-4.5586,-4.5667,-4.5659,-4.5657,-4.5656,-4.5707,-4.5702,-4.5873,-4.5895,-4.5747,-4.5749,-4.575,0,-4.5208,-4.5257,-4.5294,-4.5324,-4.5344,-4.5393,-4.5423,-4.5423,-4.5455,-4.5495,-4.5531,-4.558,-4.5619,-4.57,-4.5714,-4.5758,-4.5751,-4.5808,-4.5757,-4.5758,-4.5752,-4.575,-4.5754,-4.5818,-4.5819,-4.5821,-4.5822,0,-4.5338,-4.5341,-4.5385,-4.5431,-4.5468,-4.5504,-4.5537,-4.5563,-4.5567,-4.5603,-4.5655,-4.5686,-4.5746,-4.5794,-4.5838,-4.5854,-4.5839,-4.5838,-4.5852,-4.5855,-4.5852,-4.5854,-4.5684,-4.5834,-4.5832,-4.5832,-4.5831,-4.583,-4.543,-4.5473,-4.5506,-4.5556,-4.5582,-4.5614,-4.5655,-4.5669,-4.5713,-4.5763,-4.576,-4.5818,-4.5848,-4.5905,-4.5925,-4.5969,-4.5949,-4.597,-4.5975,-4.5981,-4.5986,-4.5845,-4.5976,-4.5976,-4.5976,-4.5975,-4.5975,0,-4.5559,-4.558,-4.5626,-4.5675,-4.5714,-4.5698,-4.5734,-4.5768,-4.5819,-4.5849,-4.5889,-4.5949,-4.5996,-4.6014,-4.606,-4.6091,-4.6085,-4.6103,-4.6101,-4.6105,-4.6,-4.5984,-4.6107,-4.6107,-4.6107,-4.6107,-4.6107,-4.6107,-4.5631,-4.5702,-4.5709,-4.5792,-4.5812,-4.5869,-4.5892,-4.5921,-4.5945,-4.6013,-4.6053,-4.6065,-4.609,-4.6138,-4.618,-4.6184,-4.6202,-4.6223,-4.6224,-4.6126,-4.6112,-4.61,-4.6084,-4.6227,-4.6227,-4.6325,-4.6326,-4.6326]}]]